Flag for Egypt Weather past 2 weeks in Port Said, Egypt

Now
57 °F

Clear.


Feels Like: 55 °F
Forecast: 57 / 65 °F
Wind: 10 mph from Northwest

Location: Port Said Airport

Current Time: Mar 4, 2015 at 7:05:37 AM

Latest Report: Mar 4, 2015 at 6:00 AM


Visibility: 10 mi

Pressure: 30.12 "Hg

Humidity: 88%

Dew point: 54 °F

Location of Port SaidLocation

Historic Weather in Port Said — Graph

°F

Port Said temperature yesterday

Maximum temperature yesterday: 68 °F (at 12:00 PM)
Minimum temperature yesterday: 57 °F (at 6:00 AM)
Average temperature yesterday: 62 °F

Past Weeks' High & Low Weather Summary

 TemperatureHumidityPressure
High79 °F (Feb 27, 3:00 PM)94% (Feb 18, 6:00 AM)30.18 "Hg (Feb 18, 6:00 AM)
Low43 °F (Feb 20, 5:00 AM)37% (Feb 27, 3:00 PM)29.77 "Hg (Feb 24, 6:00 AM)
Average59 °F75%30.03 "Hg
* Reported Feb 17 6:00 AM — Mar 4 6:00 AM, Port Said, Weather by CustomWeather, © 2015

Note: Actual official high and low records may vary slightly from our data, if they occured in-between our weather recording intervals... More about our weather records

Advertising

Port Said weather history for previous 24 hours

 ConditionsComfort  
Time TempWeatherWind HumidityBarometerVisibility
6:00 AM
Wed, Mar 4
57 °FClear.10 mph88%30.12 "Hg10 mi
5:00 AM59 °FClear.9 mph82%30.15 "Hg10 mi
4:00 AM59 °FClear.9 mph82%30.15 "Hg10 mi
3:00 AM59 °FClear.8 mph82%30.15 "Hg10 mi
2:00 AM61 °FClear.9 mph77%30.15 "Hg10 mi
1:00 AM61 °FClear.12 mph77%30.18 "Hg10 mi
12:00 AM61 °FClear.12 mph77%30.18 "Hg10 mi
11:00 PM
Tue, Mar 3
61 °FClear.13 mph77%30.18 "Hg10 mi
10:00 PM61 °FClear.13 mph77%30.18 "Hg10 mi
9:00 PM63 °FClear.12 mph68%30.18 "Hg10 mi
8:00 PM63 °FPassing clouds.14 mph68%30.18 "HgN/A
7:00 PM63 °FClear.15 mph73%30.15 "Hg10 mi
6:00 PM63 °FClear.17 mph73%30.12 "Hg10 mi
5:00 PM63 °FSunny.18 mph73%30.12 "Hg10 mi
4:00 PM64 °FSunny.16 mph73%30.12 "Hg10 mi
3:00 PM64 °FSunny.16 mph78%30.12 "Hg10 mi
2:00 PM66 °FSunny.12 mph68%30.12 "Hg10 mi
1:00 PM68 °FSunny.9 mph60%30.12 "Hg10 mi
12:00 PM68 °FSunny.9 mph53%30.15 "Hg10 mi
11:00 AM66 °FSunny.8 mph60%30.15 "Hg10 mi
10:00 AM61 °FScattered clouds.9 mph83%30.15 "HgN/A
9:00 AM59 °FScattered clouds.9 mph82%30.15 "HgN/A
8:00 AM59 °FScattered clouds.No wind82%30.15 "HgN/A
7:00 AM57 °FScattered clouds.No wind88%30.12 "HgN/A
Weather by CustomWeather, © 2015

See weather overviewHow to use our weather pages